Kezdőlap
METAR-TAF:

METAR-TAF

Repülőterek :

South Wood County Airport (Alexander Field)

Wisconsin Rapids, Wisconsin, Amerikai Egyesült Államok

földrajzi szélesség: 44-21-33N, földrajzi hosszúság: 089-50-13W, magasság: 311 m

Jelenlegi meteorológiai megfigyelések

A jelentés 1 órával és 4 perccel ezelõtt készült, 01:54 UTC
Dél-délnyugati szél 13 kt
Hőmérséklet -13°C
Páratartalom 61%
Légköri nyomás 1017 hPa
Látótávolság: 16.1 km
Derült ég

METAR: KISW 270154Z AUTO 20013KT 10SM CLR M13/M19 A3002 RMK AO2 SLP199 T11331194

Idő: 20:58 (02:58 UTC)


TAF: hiányzik

Meteorológiai megfigyelések és előrejelzések több, mint 4000 repülőtéren (METAR és TAF jelentéseket).

A térképen piros és sárga pontok jelzik az elérhető meteorológiai állomásokat.

Mozgassa az egeret a pont fölött, hogy megjelenjen az állomás neve.

Azután kattintson az időjárási megfigyelések és előrejelzések megtekintéséhez.

A térkép megváltoztatása: kattintson a fekete keresztel jelölt zöld gombra ráközelítéshez, a vonallal jelölt zöld gombra távolításhoz, vagy a zöld nyilakra a szomszédos térképek eléréséhez.


METAR-TAF: